Weather observations for the past three days for
Toledo - Toledo Executive Airport
Imperial (Metric)
Date Time (edt) Wind (mph) Vis. (mi.) Weather Sky Cond. Temperature (ºF) Relative Humidity Wind Chill (°F) Heat Index (°F) Pressure Precipitation (in)
Air Dwpt 6 hour altimeter (in) sea level (mb) 1 hr 3 hr 6 hr
Max. Min.
16 04:53 SW 24 G 33 10.00 Partly Cloudy and Breezy SCT028 SCT034 77 64.9 66% 79 29.68 1004.4
16 03:53 SW 16 G 22 10.00 Fair CLR 79 66.9 67% 81 29.65 1003.2
16 02:53 SW 22 G 33 10.00 A Few Clouds and Breezy FEW030 82.9 72 70% 88 29.7 1004.9
16 01:53 S 12 10.00 Mostly Cloudy SCT034 BKN044 BKN049 81 71.1 87.1 79 72% 85 29.75 1006.8
16 00:53 S 7 10.00 Fair CLR 79 73 82% 82 29.76 1007.2
15 23:53 S 7 10.00 A Few Clouds FEW033 80.1 73 79% 84 29.77 1007.5
15 22:53 S 6 10.00 Fair CLR 80.1 72 76% 84 29.77 1007.6
15 21:53 SW 3 10.00 Fair CLR 82.9 72 70% 88 29.8 1008.5
15 20:53 SW 6 10.00 Fair CLR 84.9 72 65% 91 29.79 1008.1
15 19:53 SW 12 10.00 Partly Cloudy SCT043 87.1 71.1 90 84 59% 93 29.8 1008.5
15 18:53 SW 14 G 20 10.00 Mostly Cloudy SCT037 BKN045 89.1 72 57% 96 29.81 1008.8
15 17:53 SW 12 10.00 Fair CLR 90 71.1 54% 96 29.82 1009.2
15 16:53 W 9 10.00 Fair CLR 89.1 70 53% 94 29.83 1009.5
15 15:53 W 10 10.00 Fair CLR 88 68 52% 92 29.86 1010.7
15 14:53 W 10 10.00 Fair CLR 86 69.1 57% 90 29.89 1011.5
15 13:53 W 13 G 18 10.00 A Few Clouds FEW029 84.9 68 84.9 75.9 57% 88 29.9 1011.8
15 12:53 W 12 10.00 Mostly Cloudy BKN028 82.9 68 61% 86 29.9 1011.9
15 11:53 W 15 10.00 Fair CLR 82 66.9 60% 85 29.89 1011.7
15 10:53 W 18 10.00 A Few Clouds FEW022 80.1 66.9 64% 82 29.89 1011.6
15 09:53 W 15 G 25 10.00 A Few Clouds FEW090 78.1 66 67% 80 29.89 1011.5
15 08:53 W 16 G 28 10.00 A Few Clouds FEW120 77 64 64% 79 29.89 1011.7
15 07:53 SW 7 10.00 A Few Clouds FEW110 78.1 71.1 78.1 73 79% 80 29.87 1011.0
15 06:53 SW 8 10.00 Fair CLR 77 72 85% 78 29.87 1010.8
15 05:53 SW 10 10.00 A Few Clouds FEW120 75.9 71.1 85% 76 29.88 1011.4
15 04:53 S 7 10.00 A Few Clouds FEW032 73.9 69.1 85% 29.88 1011.1
15 03:53 S 7 10.00 Fair CLR 73 69.1 87% 29.88 1011.3
15 02:53 S 7 10.00 Fair CLR 73.9 68 82% 29.91 1012.1
15 01:53 S 6 10.00 Fair CLR 73 68 79 72 84% 29.93 1012.9
15 00:53 S 6 10.00 A Few Clouds FEW022 73 68 84% 29.95 1013.6
14 23:53 S 7 10.00 Fair CLR 73 68 84% 29.94 1013.2
14 22:53 SW 6 10.00 Fair CLR 73.9 68 82% 29.93 1013.0
14 21:53 SW 8 10.00 Fair CLR 75.9 68 77% 77 29.94 1013.4
14 20:53 SW 10 10.00 Fair CLR 78.1 68 71% 80 29.94 1013.3
14 19:53 SW 14 10.00 Fair CLR 79 66.9 88 79 67% 81 29.95 1013.7
14 18:53 SW 9 10.00 Fair CLR 79 66.9 67% 81 29.95 1013.6
14 17:53 SW 15 G 26 10.00 Fair CLR 79 68 69% 81 29.95 1013.8
14 16:53 SW 15 10.00 Fair CLR 81 70 69% 84 29.97 1014.1
14 15:53 SW 13 G 24 10.00 Thunderstorm in Vicinity FEW043 FEW065 84 71.1 65% 89 29.94 1013.4
14 14:53 S 14 G 25 10.00 A Few Clouds FEW026 87.1 73.9 65% 95 29.95 1013.5
14 13:53 SW 12 10.00 Mostly Cloudy SCT025 BKN032 84.9 72 86 75 65% 91 29.98 1014.6 0.02
14 12:53 SW 16 G 23 10.00 Fair CLR 81 70 69% 84 30.01 1015.8
14 11:53 S 12 G 22 10.00 Mostly Cloudy BKN110 79 69.1 72% 82 30.03 1016.3
14 10:53 S 15 10.00 Partly Cloudy FEW080 FEW100 SCT120 77 70 79% 79 30.04 1016.5 0.02 0.02
14 09:53 SW 8 10.00 Light Rain FEW055 FEW075 BKN110 77 68 74% 79 30.06 1017.2
14 08:53 S 7 10.00 Mostly Cloudy BKN110 77 68 74% 79 30.05 1017.2
14 07:53 SW 9 10.00 Fair CLR 75.9 68 75.9 73 77% 77 30.06 1017.3
14 06:53 SW 9 10.00 Fair CLR 75 66.9 76% 76 30.05 1017.1
14 05:53 S 7 10.00 Fair CLR 73.9 66 76% 30.06 1017.4
14 04:53 S 5 10.00 Fair CLR 73.9 66 76% 30.06 1017.5
14 03:53 S 6 10.00 Fair CLR 73 66 79% 30.06 1017.4
14 02:53 SW 6 10.00 Fair CLR 75 68 79% 76 30.08 1017.8
14 01:53 S 7 10.00 Fair CLR 73.9 68 86 73.9 82% 30.08 1018.1
14 00:53 S 5 10.00 Fair CLR 75 69.1 82% 75 30.1 1018.6
13 23:53 E 5 10.00 Fair CLR 75.9 69.1 79% 77 30.11 1019.1
13 22:53 SE 8 10.00 Fair CLR 78.1 70 76% 80 30.11 1019.2
13 21:53 SE 7 10.00 Fair CLR 79 69.1 72% 82 30.1 1018.8
13 20:53 E 5 10.00 Fair CLR 82.9 70 65% 87 30.11 1019.1
13 19:53 SE 6 10.00 Fair CLR 86 70 90 84.9 59% 91 30.12 1019.5
13 18:53 SE 7 10.00 Fair CLR 88 68 52% 92 30.11 1019.1
13 17:53 SE 7 10.00 Fair CLR 88 69.1 54% 92 30.13 1019.6
13 16:53 NE 6 10.00 Fair CLR 89.1 69.1 52% 94 30.14 1020.2
13 15:53 NE 8 10.00 Overcast BKN047 OVC055 86 69.1 57% 90 30.16 1020.6
13 14:53 NE 6 10.00 Mostly Cloudy SCT050 BKN070 BKN085 90 66.9 47% 93 30.16 1020.6
13 13:53 Calm 10.00 Mostly Cloudy SCT047 BKN070 89.1 64.9 89.1 75 45% 91 30.17 1021.1
13 12:53 Vrbl 3 10.00 Fair CLR 87.1 64.9 48% 89 30.18 1021.3
13 11:53 Vrbl 3 10.00 Fair CLR 87.1 66.9 51% 90 30.19 1021.6
13 10:53 Vrbl 3 10.00 Fair CLR 84 66.9 57% 87 30.19 1021.6
13 09:53 Vrbl 3 10.00 Fair CLR 82 66.9 60% 85 30.2 1021.9
13 08:53 Calm 10.00 Fair CLR 79 69.1 72% 82 30.2 1022.1
13 07:53 Calm 10.00 Fair CLR 75 69.1 75 69.1 82% 75 30.19 1021.8
13 06:53 Calm 10.00 Fair CLR 70 64.9 84% 30.18 1021.5
13 05:53 Calm 10.00 Fair CLR 71.1 64.9 81% 30.17 1021.1
Date Time (edt) Wind (mph) Vis. (mi.) Weather Sky Cond. Air Dwpt Max. Min. Relative Humidity Wind Chill (°F) Heat Index (°F) altimeter (in) sea level (mb) 1 hr 3 hr 6 hr
6 hour
Temperature (ºF) Pressure Precipitation (in)